Flag for Germany Weather past 2 weeks in Germering, Bavaria, Germany

Now
34 °F

Passing clouds.


Feels Like: 26 °F
Forecast: 31 / 36 °F
Wind: 10 mph from Southwest

Location: Landsberg

Current Time: Jan 28, 2015 at 11:43:01 PM

Latest Report: Jan 28, 2015 at 10:20 PM


Visibility: N/A

Pressure: 29.59 "Hg

Humidity: 70%

Dew point: 25 °F

Location of GermeringLocation

Historic Weather in Germering — Graph

°F

Germering temperature yesterday

Maximum temperature yesterday: 32 °F (at 12:20 AM)
Minimum temperature yesterday: 30 °F (at 3:48 PM)
Average temperature yesterday: 31 °F

Past Weeks' High & Low Weather Summary

 TemperatureHumidityPressure
High50 °F (Jan 14, 2:20 AM)100% (Jan 15, 1:20 AM)30.33 "Hg (Jan 15, 1:20 AM)
Low23 °F (Jan 20, 12:20 AM)43% (Jan 14, 2:20 AM)29.59 "Hg (Jan 28, 10:20 PM)
Average32 °F88%29.97 "Hg
* Reported Jan 13 10:20 PM — Jan 28 10:20 PM, Germering, Weather by CustomWeather, © 2014

Note: Actual official high and low records may vary slightly from our data, if they occured in-between our weather recording intervals... More about our weather records

Advertising

Germering weather history for previous 24 hours

 ConditionsComfort  
Time TempWeatherWind HumidityBarometerVisibility
10:20 PM
Jan 28
34 °FPassing clouds.10 mph70%29.59 "HgN/A
9:20 PM34 °FPassing clouds.20 mph70%29.62 "HgN/A
8:20 PM34 °FPartly cloudy.22 mph70%29.68 "HgN/A
7:20 PM32 °FPassing clouds.16 mph69%29.71 "HgN/A
6:20 PM30 °FPartly cloudy.9 mph75%29.77 "HgN/A
5:20 PM32 °FPassing clouds.10 mph75%29.83 "HgN/A
4:20 PM34 °FPartly sunny.14 mph70%29.86 "HgN/A
3:20 PM34 °FPartly sunny.17 mph70%29.89 "HgN/A
2:20 PM34 °FPartly sunny.13 mph75%29.92 "HgN/A
1:20 PM34 °FPartly sunny.13 mph75%29.98 "HgN/A
12:20 PM34 °FPartly sunny.14 mph75%30.01 "HgN/A
11:20 AM32 °FBroken clouds.12 mph87%30.04 "HgN/A
10:20 AM32 °FPartly sunny.12 mph80%30.07 "HgN/A
9:20 AM30 °FPartly sunny.10 mph86%30.07 "HgN/A
8:20 AM28 °FPartly sunny.9 mph93%30.09 "HgN/A
7:20 AM28 °FPassing clouds.8 mph93%30.09 "Hg5 mi
6:20 AM30 °FLight snow. Passing clouds.8 mph93%30.09 "Hg3 mi
5:20 AM28 °FLight snow. Partly cloudy.7 mph100%30.09 "Hg4 mi
4:20 AM30 °FLight snow. Passing clouds.7 mph93%30.12 "Hg5 mi
3:20 AM30 °FPartly cloudy.6 mph93%30.12 "Hg4 mi
2:20 AM30 °FLight snow. Partly cloudy.9 mph93%30.12 "Hg3 mi
1:20 AM30 °FLight snow. Partly cloudy.9 mph100%30.12 "Hg3 mi
12:20 AM30 °FLight snow. Passing clouds.8 mph93%30.12 "Hg3 mi
11:20 PM
Jan 27
30 °FLight snow. Passing clouds.10 mph100%30.12 "Hg2 mi
Weather by CustomWeather, © 2014

See weather overviewHow to use our weather pages